Starlink 32673

operational
NORAD ID: 63000 Int'l Des: 2025-031 Owner: SPXS Country: US Constellation: starlink
LEOCIRCULAR

About Starlink 32673

Description loading...

Live Position

Loading 3D Globe...

Upcoming Passes

Altitude History

Altitude vs Time

uPlot chart will show altitude changes over time

Two-Line Element Set

1 63000U 25031V 26035.20872237 .00033865 00000-0 12339-2 0 9992
2 63000 43.0031 332.5147 0001074 268.6179 91.4550 15.27596395 55970
Epoch: Feb 4, 2026 • Age: 16 hours

Current Status

Altitude 487.3 km
Velocity 7.62 km/s
Sub-Earth Point -21.27°S, 139.13°W
Launch Date Feb 11, 2025
Age 0.9 years
Type internet

Technical Details

Classification Payload
Mass 730.00 kg
Dry Mass 700.00 kg
Total Mass 730.00 kg
Length 0.30 m
Diameter 4.10 m
Span 29.00 m
Shape Box + pan
Manufacturer SPXS
Bus Type Starlink V2M
Phase Status In Orbit
Owner/State SPXS/US

Large Constellations

Loading constellations...